Showing default

UMBRA-10, 60547

Orbit data source: Space-Track

UMBRA-10, 60547 is a payload satellite owned by Umbra Labs (US) in SSO that was launched on Fri, 16 Aug 2024 UTC via an FALCON 9 launch vehicle from the Air Force Western Test Range (AFWTR). Payload-class satellites include a variety of spacecraft equipped with specific instruments for various scientific and technological missions. These include communications satellites like Starlink; space stations such as the ISS; scientific satellites like the Hubble; Earth observation satellites from companies like Planet Labs, Umbra, and HawkEye 360; GPS; miniature CubeSats for education and research; and military/defense satellites.

Loading next visibility...
Identifier
60547, 2024-149CH
Orbit
SSO
Country
Flag of USUS
Related business
Manufacturer
Umbra Labs
Mission
Operational Commercial Radar Imaging
Bus & Motor
ESPASAT?, Unknown motor
Mass
84 kg wet, 79 kg dry
Launch date (UTC)
2024-08-16 (2 years ago)
Launch vehicle
FALCON 9
Launch site
Air Force Western Test Range (AFWTR)
Object type
Payload
Rocket body
Debris
Shape & HBR
Box + 2 Pan + 1 Dish, 2.0 m
Radar Cross Section
6.513 m², Large (>1 m²)

Expand to show TLE details & history
Last TLE update: 11 hours ago

TLE from 11 hours ago
0 UMBRA-10
1 60547U 24149CH  26265.00916734  .00011775  00000-0  53869-3 0  9998
2 60547  97.6945 354.0817 0000966  55.0928 305.0397 15.20688345115435
Epoch: 2026-09-22T00:13Z
TLE epoch observation values (Epoch: 2026-09-22T00:13:12.058Z)
Latitude
-0.00004°
Longitude
-10.09934°
Altitude
506.464 km
Speed
7.611 km/s
True Right ascension
23h 36m 19s
True Declination
0° 00' 00"
Sunlit
Object was in full shadow at epoch
Visualization orbit readout
Latitude
Unknown
Longitude
Unknown
Altitude
Unknown
Speed
Unknown
Apparent Right ascension
Unknown
Apparent Declination
Unknown
Sunlit
N/A
Visualization observer readout
Local Sidereal Time
04:32:27
Azimuth
Unknown
Elevation
Unknown
Doppler factor
Unknown
Orbital elements
Apogee altitude
501.405 km
Perigee altitude
500.076 km
Semi-major axis
6,878.878 km
Eccentricity
0.0001
Inclination
97.6945°
RAAN
354.0817°
Arg. of periapsis
55.0928°
True anomaly
305.03064°
Mean anomaly
305.0397°
Eccentric anomaly
305.03517°
Mean motion
3.80423 °/min
Orbital period
94.63 mins
BSTAR
0.00053869
Loading maneuver chart data...
Computing Atmospheric mass density...
Loading historical data...
Loading historical data...
Loading historical data...
Loading historical data...
Loading historical data...
Loading historical data...
Loading historical data...

Documentation

Showing up to 5 results
|